Regional Weather Roundup
Issued by NWS

Home | Current Version | Previous Version | Text Only | Print | Product List | Glossary Off
Versions: 1 2 3 4 5 6 7 8 9 10 11 12 13 14 15 16 17 18 19 20 21 22 23 24 25 26 27

000
ASUS45 KTFX 300710
RWRMT
MONTANA REGIONAL WEATHER ROUNDUP
NATIONAL WEATHER SERVICE GREAT FALLS MT
100 AM MDT MON MAY 30 2016

NOTE: "FAIR" INDICATES FEW OR NO CLOUDS BELOW 12000 FEET WITH NO
SIGNIFICANT WEATHER AND/OR OBSTRUCTIONS TO VISIBILITY.

MTZ001>007-043-300800-
WEST OF THE DIVIDE

CITY           SKY/WX    TMP DP  RH WIND       PRES   REMARKS
KALISPELL      MOCLDY    51  42  71 N12G21    29.99R
MISSOULA       MOCLDY    49  45  86 E5        30.05R
BUTTE          CLEAR     47  38  71 N3        30.08R
MULLAN PASS    MOCLDY    42  30  62 VRB5      30.08R
ANACONDA         N/A     48  39  71 N3        30.07S
DEER LODGE       N/A     48  43  81 CALM      30.07S
EUREKA           N/A     48  46  93 CALM      30.07R
HAMILTON         N/A     52  45  76 CALM      30.05S
LIBBY            N/A     52  39  62 N8        30.05R
$$

MTZ008-052>055-300800-
SOUTHWEST MONTANA

CITY           SKY/WX    TMP DP  RH WIND       PRES   REMARKS
BOZEMAN        PTCLDY    53  41  63 N8        29.99S
DILLON         MOCLDY    52  36  54 SW3       30.03R
W YELLOWSTONE  CLOUDY    45  39  81 CALM      30.09F
ENNIS          CLOUDY    48  37  66 CALM      30.07R
$$

MTZ009-010-012-014-046-048-049-054-300800-
EAST SLOPES AND CENTRAL MONTANA

CITY           SKY/WX    TMP DP  RH WIND       PRES   REMARKS
CUT BANK       MOCLDY    47  39  74 W8        29.94S
GREAT FALLS    CLOUDY    49  43  80 SW10      29.97S
MALMSTROM AFB  CLOUDY    52  45  76 S8        29.96S
HELENA         CLOUDY    56  42  59 CALM      30.01S
CHOTEAU          N/A     52  45  76 SW8       29.98S
$$

MTZ011-013-016-021-045-047-050-051-300800-
NORTH CENTRAL MONTANA

CITY           SKY/WX    TMP DP  RH WIND       PRES   REMARKS
HAVRE          PTCLDY    49  45  86 W3        29.90S
LEWISTOWN      CLOUDY    54  43  66 W7        29.99R
N BAR RANCH      N/A     45  39  81 N7        30.01R
CHINOOK          N/A     52  46  82 CALM      29.90S
$$

MTZ017>020-022>027-061-062-300800-
NORTHEAST MONTANA

CITY           SKY/WX    TMP DP  RH WIND       PRES   REMARKS
GLASGOW        CLOUDY    56  45  66 SE8       29.89F
JORDAN           N/A     49  45  86 W5        29.91F
SIDNEY         CLEAR     52  43  71 NW5       29.92F
WOLF POINT     CLEAR     48  40  73 NE3       29.90F
POPLAR           N/A     50  43  76 N5        29.92S
$$

MTZ028>42-056>058-300800-
SOUTHCENTRAL AND SOUTHEAST MONTANA

CITY           SKY/WX    TMP DP  RH WIND       PRES   REMARKS
BAKER          CLEAR     47  42  83 SE6       29.94F
BILLINGS       PTCLDY    57  46  66 N15       29.91R
LIVINGSTON     CLOUDY    57  39  51 W5        29.99R
MILES CITY     CLOUDY    62  45  53 N9        29.90S
FORSYTH          N/A     64  45  48 SE7       29.87F
$$

REGIONAL REPORTS...DAKOTAS

CITY           SKY/WX    TMP DP  RH WIND       PRES   REMARKS
WILLISTON      CLEAR     47  41  80 N3        29.92S
MINOT          CLEAR     56  45  66 S5        29.91F
DICKINSON      CLEAR     51  46  83 S10       29.93F
BEACH            N/A     50  45  81 S3        29.96F
CROSBY           N/A     50  50 100 S9        29.94R
WATFORD CITY     N/A     48  41  76 CALM      29.93F
BISMARCK       CLEAR     56  51  84 SE5       29.95F
GRAND FORKS    CLEAR     50  45  83 S9        29.92R
FARGO          MOCLDY    61  49  64 S6        29.94S
BUFFALO SD       N/A     57  48  72 S5        29.89F
RAPID CITY     CLEAR     53  50  89 N6        29.96F
$$

REGIONAL REPORTS...WYOMING/IDAHO/WASHINGTON

CITY           SKY/WX    TMP DP  RH WIND       PRES   REMARKS
GILLETTE       CLEAR     54  45  71 S3        29.94F
SHERIDAN       CLOUDY    51  47  86 W6        29.90F
BUFFALO WY       N/A     59  37  44 S8        29.96F
CODY           PTCLDY    57  37  47 S3        29.96F
YELLOWSTONE LA   N/A     41  38  89 CALM      30.18F
IDAHO FALLS    CLOUDY    50  42  74 SW9       30.04R
SALMON         PTCLDY    54  36  50 S7        30.02R
BOISE          CLEAR     64  38  38 W9        30.01R
SPOKANE        PTCLDY    51  37  58 N6        30.08R
$$

REGIONAL REPORTS...ALBERTA

CITY           SKY/WX    TMP DP  RH WIND       PRES   REMARKS
EDMONTON       CLOUDY    48  43  81 NW8       30.00R
CALGARY        LGT RAIN  43  39  87 N12G18    30.01R
LETHBRIDGE     CLOUDY    48  45  87 W20G29    29.99R
MEDICINE HAT   CLEAR     54  43  66 NW13G21   29.86F
WATERTON GATE    N/A     45  41  87 SW5         N/A
CARDSTON         N/A     45  43  93 N9          N/A
MILK RIVER       N/A     50  41  71 W14G20      N/A
$$

REGIONAL REPORTS...SASKATCHEWAN

CITY           SKY/WX    TMP DP  RH WIND       PRES   REMARKS
SWIFT CURRENT  CLEAR     52  43  71 S9        29.86S
SASKATOON      CLEAR     48  48 100 NE9       29.91R
CYPRESS HILLS    N/A     46  36  66 SW3         N/A
VAL MARIE        N/A     48  45  87 E3          N/A
ROCKGLEN         N/A     54  41  62 S5          N/A
ASSINIBOIA       N/A     50  48  93 NW6         N/A
$$




USA.gov is the U.S. government's official web portal to all federal, state and local government web resources and services.